Regional Weather Roundup
Issued by NWS Little Rock, AR

Home | Current Version | Previous Version | Graphics & Text | Print | Product List | Glossary On
Versions: 1 2 3 4 5 6 7 8 9 10 11 12 13 14 15 16 17 18 19 20 21 22 23 24 25 26 27 28 29 30 31 32
000
ASUS44 KLZK 240305
RWRLZK

WEATHER ROUNDUP FOR ARKANSAS
NATIONAL WEATHER SERVICE LITTLE ROCK AR
1000 PM CDT SAT SEP 23 2017

NOTE: "FAIR" INDICATES FEW OR NO CLOUDS BELOW 12,000 FEET WITH NO
SIGNIFICANT WEATHER AND/OR OBSTRUCTIONS TO VISIBILITY.

ARZ001-003-010-029-240400-
NORTHWEST ARKANSAS

CITY           SKY/WX    TMP DP  RH WIND       PRES   REMARKS
FAYETTEVILLE   CLEAR     66  65  96 CALM      29.99R
FORT SMITH     MOCLDY    81  65  58 CALM      29.93R
HARRISON       CLEAR     74  64  71 SE3       30.02R
BENTONVILLE    CLEAR     77  64  64 SE5       30.01R
ROGERS         CLEAR     75  69  81 SE5       30.00S
SILOAM SPGS    CLEAR     74  68  81 E3        29.99
HIGHFILL       CLEAR     76  65  68 CALM      29.99R
$$

ARZ004-005-016-240400-
NORTH CENTRAL ARKANSAS

CITY           SKY/WX    TMP DP  RH WIND       PRES   REMARKS
BATESVILLE     CLEAR     74  67  78 CALM      29.98R
FLIPPIN        CLEAR     75  66  73 CALM      30.00R
MTN HOME       CLEAR     76  65  68 CALM      29.99R
$$

ARZ040-041-240400-
WEST CENTRAL ARKANSAS

CITY           SKY/WX    TMP DP  RH WIND       PRES   REMARKS
MENA           CLEAR     73  72  94 CALM      29.98R
MOUNT IDA      CLEAR     72  68  87 CALM      29.95R
$$

ARZ009-017-025-026-028-240400-
NORTHEAST ARKANSAS

CITY           SKY/WX    TMP DP  RH WIND       PRES   REMARKS
JONESBORO      CLEAR     75  70  84 CALM      29.97R
BLYTHEVILLE    CLEAR     76  71  85 SE5       29.98S
$$

ARZ022-023-033-042-044-240400-
CENTRAL ARKANSAS

CITY           SKY/WX    TMP DP  RH WIND       PRES   REMARKS
LITTLE ROCK    CLEAR     77  70  79 CALM      29.95R
N LITTLE ROCK    N/A     78  68  72 CALM      29.96R
JACKSONVILLE   CLEAR     74  69  84 CALM      29.95R
CONWAY           N/A     75  70  83 N3        29.94R
SEARCY         CLEAR     74  71  91 NE3       29.97S
HOT SPRINGS    CLEAR     78  68  71 CALM      29.95S
RUSSELLVILLE   CLEAR     79  67  66 E3        29.95R
CLINTON        FOG       70  68  94 CALM      29.98S VSB 3/4
$$

ARZ036-240400-
EAST ARKANSAS

CITY           SKY/WX    TMP DP  RH WIND       PRES   REMARKS
WEST MEMPHIS   CLEAR     73  71  93 CALM      29.96R
$$

ARZ050-053-066-070-073-240400-
SOUTHWEST ARKANSAS

CITY           SKY/WX    TMP DP  RH WIND       PRES   REMARKS
ARKADELPHIA    FAIR      72  71  97 CALM      29.94R
CAMDEN         PTCLDY    73  68  83 CALM      29.93R
TEXARKANA      CLEAR     78  68  71 SE5       29.93R
EL DORADO      CLEAR     74  71  91 CALM      29.94R
DE QUEEN       CLEAR     71  71 100 CALM      29.91R
$$

ARZ056-057-069-240400-
SOUTHEAST ARKANSAS

CITY           SKY/WX    TMP DP  RH WIND       PRES   REMARKS
PINE BLUFF     CLEAR     74  69  85 E5        29.95R
STUTTGART      CLEAR     80  69  69 E8        29.95R
MONTICELLO     CLEAR     75  70  84 CALM      29.95R

$$






USA.gov is the U.S. government's official web portal to all federal, state and local government web resources and services.